Flag for Switzerland Weather past 2 weeks in Lausanne, Vaud, Switzerland

Now
35 °F

Chilly.


Feels Like: 35 °F
Forecast: 32 / 47 °F
Wind: 2 mph from South

Location: Aigle

Current Time: Feb 28, 2015 at 9:11:28 PM

Latest Report: Feb 28, 2015 at 8:00 PM


Visibility: N/A

Pressure: 30.16 "Hg

Humidity: 90%

Dew point: 32 °F

Location of LausanneLocation

Historic Weather in Lausanne — Graph

°F

Lausanne temperature yesterday

Maximum temperature yesterday: 43 °F (at 5:00 AM)
Minimum temperature yesterday: 35 °F (at 12:00 PM)
Average temperature yesterday: 39 °F

Past Weeks' High & Low Weather Summary

 TemperatureHumidityPressure
High51 °F (Feb 14, 1:00 PM)99% (Feb 21, 9:00 PM)30.66 "Hg (Feb 21, 9:00 PM)
Low28 °F (Feb 19, 6:00 AM)35% (Feb 20, 11:00 AM)29.58 "Hg (Feb 21, 11:00 AM)
Average38 °F79%30.07 "Hg
* Reported Feb 13 7:00 PM — Feb 28 7:00 PM, Lausanne, Weather by CustomWeather, © 2015

Note: Actual official high and low records may vary slightly from our data, if they occured in-between our weather recording intervals... More about our weather records

Advertising

Lausanne weather history for previous 24 hours

 ConditionsComfort  
Time TempWeatherWind HumidityBarometerVisibility
7:00 PM
Sat, Feb 28
34 °FPassing clouds.2 mph91%30.15 "Hg28 mi
6:00 PM40 °FQuite cool.2 mph73%30.12 "HgN/A
5:00 PM42 °FQuite cool.6 mph66%30.11 "HgN/A
4:00 PM43 °FOvercast.6 mph66%30.11 "Hg19 mi
3:00 PM43 °FQuite cool.6 mph64%30.13 "HgN/A
2:00 PM44 °FQuite cool.8 mph61%30.13 "HgN/A
1:00 PM42 °FFog.6 mph69%30.15 "Hg7 mi
12:00 PM41 °FQuite cool.2 mph67%30.16 "HgN/A
11:00 AM41 °FQuite cool.2 mph73%30.18 "HgN/A
10:00 AM39 °FFog.2 mph76%30.18 "Hg7 mi
9:00 AM39 °FChilly.2 mph80%30.18 "HgN/A
8:00 AM36 °FChilly.2 mph86%30.18 "HgN/A
7:00 AM38 °FChilly.2 mph77%30.17 "HgN/A
6:00 AM38 °FChilly.5 mph76%30.16 "HgN/A
5:00 AM38 °FChilly.2 mph77%30.16 "HgN/A
4:00 AM38 °FFog.7 mph73%30.15 "Hg7 mi
3:00 AM39 °FChilly.6 mph72%30.15 "HgN/A
2:00 AM39 °FChilly.9 mph71%30.17 "HgN/A
1:00 AM39 °FChilly.10 mph72%30.18 "HgN/A
12:00 AM39 °FChilly.12 mph74%30.18 "HgN/A
11:00 PM
Fri, Feb 27
39 °FChilly.10 mph79%30.18 "HgN/A
9:00 PM39 °FChilly.12 mph84%30.17 "HgN/A
Weather by CustomWeather, © 2015

See weather overviewHow to use our weather pages